When you browse on this site, cookies collect data to enhance your experience and personalize the content and advertising you see.
Visit our Privacy Policy to learn more. By continuing to use the site, you agree to this use of cookies and data.
  • In Hungary
  • List of Countries
  • For 7 days
  • Water Temperature
  • Satellite Maps
  • Weather Map
  • News
  • Weather Widgets
  • user-avatar
    Login

    Hourly Weather Nizhnie Sokoly

    Today, 17 November, Saturday

    Time Temperature Precipitation Wind Pressure Humidity
    00:00 -20°C° 0 mm 0 mps 767 mmHg 98%
    01:00 -20°C° 0 mm 1 mps 766 mmHg 98%
    02:00 -20°C° 0 mm 1 mps 766 mmHg 97%
    03:00 -20°C° 0 mm 1 mps 766 mmHg 97%
    04:00 -20°C° 0 mm 1 mps 765 mmHg 97%
    05:00 -20°C° 0 mm 1 mps 765 mmHg 96%
    06:00 -21°C° 0 mm 1 mps 765 mmHg 95%
    07:00 -21°C° 0 mm 1 mps 764 mmHg 94%
    08:00 -21°C° 0 mm 1 mps 764 mmHg 93%
    09:00 -24°C° 0 mm 2 mps 763 mmHg 93%
    10:00 -21°C° 0 mm 2 mps 762 mmHg 90%
    11:00 -20°C° 0 mm 2 mps 762 mmHg 88%
    12:00 -18°C° 0 mm 2 mps 761 mmHg 85%
    13:00 -18°C° 0 mm 2 mps 760 mmHg 86%
    14:00 -18°C° 0 mm 2 mps 760 mmHg 88%
    15:00 -18°C° 0 mm 2 mps 759 mmHg 89%
    16:00 -18°C° 0 mm 2 mps 758 mmHg 90%
    17:00 -19°C° 0 mm 2 mps 758 mmHg 91%
    18:00 -20°C° 0 mm 2 mps 757 mmHg 93%
    19:00 -20°C° 0 mm 2 mps 757 mmHg 93%
    20:00 -20°C° 0 mm 2 mps 756 mmHg 94%
    21:00 -19°C° 0 mm 2 mps 756 mmHg 94%
    22:00 -19°C° 0 mm 2 mps 755 mmHg 95%
    23:00 -19°C° 0 mm 2 mps 755 mmHg 95%

    Tomorrow, 18 November, Sunday

    Time Temperature Precipitation Wind Pressure Humidity
    00:00 -19°C° 0 mm 2 mps 755 mmHg 96%
    01:00 -19°C° 0 mm 2 mps 755 mmHg 96%
    02:00 -19°C° 0 mm 2 mps 754 mmHg 96%
    03:00 -19°C° 0 mm 2 mps 754 mmHg 96%
    04:00 -19°C° 0 mm 2 mps 754 mmHg 96%
    05:00 -20°C° 0 mm 2 mps 754 mmHg 96%
    06:00 -20°C° 0 mm 2 mps 754 mmHg 96%
    07:00 -20°C° 0 mm 2 mps 754 mmHg 95%
    08:00 -20°C° 0 mm 2 mps 754 mmHg 95%
    09:00 -20°C° 0 mm 2 mps 754 mmHg 95%
    10:00 -18°C° 0 mm 2 mps 754 mmHg 93%
    11:00 -15°C° 0 mm 1 mps 754 mmHg 91%
    12:00 -13°C° 0 mm 1 mps 754 mmHg 89%
    13:00 -13°C° 0 mm 1 mps 755 mmHg 90%
    14:00 -14°C° 0 mm 1 mps 755 mmHg 91%
    15:00 -14°C° 0 mm 1 mps 755 mmHg 92%
    16:00 -15°C° 0 mm 1 mps 755 mmHg 93%
    17:00 -16°C° 0 mm 1 mps 755 mmHg 93%
    18:00 -17°C° 0 mm 1 mps 756 mmHg 94%
    19:00 -17°C° 0 mm 1 mps 756 mmHg 94%
    20:00 -18°C° 0 mm 1 mps 756 mmHg 94%
    21:00 -18°C° 0 mm 1 mps 756 mmHg 95%
    22:00 -18°C° 0 mm 0 mps 756 mmHg 95%
    23:00 -19°C° 0 mm 0 mps 756 mmHg 95%

    Day after tomorrow, 19 November, Monday

    Time Temperature Precipitation Wind Pressure Humidity
    00:00 -19°C° 0 mm 0 mps 756 mmHg 96%
    01:00 -19°C° 0 mm 0 mps 757 mmHg 96%
    02:00 -19°C° 0 mm 0 mps 757 mmHg 96%
    03:00 -19°C° 0 mm 0 mps 757 mmHg 97%
    04:00 -18°C° 0 mm 1 mps 757 mmHg 97%
    05:00 -18°C° 0 mm 1 mps 757 mmHg 97%
    06:00 -18°C° 0 mm 1 mps 757 mmHg 97%
    07:00 -18°C° 0 mm 1 mps 757 mmHg 97%
    08:00 -17°C° 0 mm 1 mps 758 mmHg 97%
    09:00 -19°C° 0 mm 2 mps 758 mmHg 96%
    10:00 -17°C° 0 mm 2 mps 758 mmHg 95%
    11:00 -16°C° 0 mm 2 mps 758 mmHg 93%
    12:00 -15°C° 0 mm 2 mps 758 mmHg 92%
    13:00 -16°C° 0 mm 3 mps 758 mmHg 91%
    14:00 -15°C° 0 mm 3 mps 758 mmHg 91%
    15:00 -15°C° 0 mm 3 mps 757 mmHg 91%
    16:00 -15°C° 0 mm 3 mps 757 mmHg 92%
    17:00 -15°C° 0 mm 3 mps 758 mmHg 92%
    18:00 -15°C° 0 mm 3 mps 758 mmHg 93%
    19:00 -15°C° 0 mm 3 mps 757 mmHg 93%
    20:00 -14°C° 0 mm 3 mps 757 mmHg 92%
    21:00 -13°C° 0 mm 3 mps 756 mmHg 92%
    22:00 -13°C° 0 mm 3 mps 756 mmHg 91%
    23:00 -13°C° 0 mm 3 mps 755 mmHg 90%

    20 November, Tuesday

    Time Temperature Precipitation Wind Pressure Humidity
    00:00 -12°C° 0 mm 3 mps 755 mmHg 90%
    01:00 -12°C° 0 mm 4 mps 754 mmHg 89%
    02:00 -12°C° 0 mm 4 mps 754 mmHg 89%
    03:00 -11°C° 0 mm 4 mps 753 mmHg 88%
    04:00 -11°C° 0.2 mm 4 mps 753 mmHg 89%
    05:00 -12°C° 0.2 mm 5 mps 752 mmHg 89%
    06:00 -12°C° 0.2 mm 5 mps 751 mmHg 90%
    07:00 -12°C° 0.4 mm 5 mps 751 mmHg 90%
    08:00 -11°C° 0.4 mm 5 mps 751 mmHg 91%
    09:00 -11°C° 0.4 mm 5 mps 750 mmHg 91%
    10:00 -11°C° 0.3 mm 5 mps 750 mmHg 90%
    11:00 -10°C° 0.3 mm 5 mps 749 mmHg 90%
    12:00 -10°C° 0.3 mm 5 mps 749 mmHg 89%
    13:00 -8°C° 0.2 mm 5 mps 749 mmHg 89%
    14:00 -8°C° 0.2 mm 4 mps 749 mmHg 89%
    15:00 -8°C° 0.2 mm 4 mps 748 mmHg 89%
    16:00 -9°C° 0.1 mm 4 mps 748 mmHg 90%
    17:00 -9°C° 0.1 mm 4 mps 748 mmHg 90%
    18:00 -9°C° 0.1 mm 4 mps 748 mmHg 91%
    19:00 -9°C° 0.1 mm 4 mps 748 mmHg 91%
    20:00 -9°C° 0.1 mm 4 mps 748 mmHg 92%
    21:00 -9°C° 0.1 mm 3 mps 748 mmHg 92%
    22:00 -9°C° 0.1 mm 3 mps 748 mmHg 92%
    23:00 -9°C° 0.1 mm 3 mps 748 mmHg 92%

    21 November, Wednesday

    Time Temperature Precipitation Wind Pressure Humidity
    00:00 -9°C° 0.1 mm 3 mps 748 mmHg 92%
    01:00 -9°C° 0 mm 3 mps 748 mmHg 93%
    02:00 -9°C° 0 mm 3 mps 748 mmHg 93%
    03:00 -9°C° 0 mm 3 mps 748 mmHg 93%
    04:00 -9°C° 0.1 mm 3 mps 748 mmHg 93%
    05:00 -9°C° 0.1 mm 3 mps 748 mmHg 93%
    06:00 -9°C° 0.1 mm 3 mps 748 mmHg 92%
    07:00 -10°C° 0 mm 4 mps 748 mmHg 92%
    08:00 -10°C° 0 mm 4 mps 747 mmHg 92%
    09:00 -10°C° 0 mm 4 mps 747 mmHg 92%
    10:00 -9°C° 0 mm 4 mps 747 mmHg 91%
    11:00 -9°C° 0 mm 4 mps 747 mmHg 89%
    12:00 -8°C° 0 mm 5 mps 747 mmHg 88%
    13:00 -8°C° 0.1 mm 4 mps 747 mmHg 88%
    14:00 -8°C° 0.1 mm 4 mps 747 mmHg 88%
    15:00 -8°C° 0.1 mm 4 mps 747 mmHg 88%
    16:00 -8°C° 0 mm 4 mps 747 mmHg 88%
    17:00 -8°C° 0 mm 4 mps 747 mmHg 88%
    18:00 -8°C° 0 mm 4 mps 747 mmHg 88%
    19:00 -8°C° 0 mm 4 mps 747 mmHg 88%
    20:00 -8°C° 0 mm 4 mps 747 mmHg 88%
    21:00 -9°C° 0 mm 4 mps 747 mmHg 88%
    22:00 -9°C° 0 mm 4 mps 746 mmHg 87%
    23:00 -8°C° 0 mm 4 mps 746 mmHg 87%

    22 November, Thursday

    Time Temperature Precipitation Wind Pressure Humidity
    00:00 -8°C° 0 mm 5 mps 746 mmHg 87%
    01:00 -8°C° 0.1 mm 5 mps 746 mmHg 87%
    02:00 -7°C° 0.1 mm 5 mps 746 mmHg 88%
    03:00 -7°C° 0.1 mm 5 mps 745 mmHg 88%
    04:00 -7°C° 0.2 mm 5 mps 745 mmHg 88%
    05:00 -7°C° 0.2 mm 5 mps 745 mmHg 88%
    06:00 -7°C° 0.2 mm 5 mps 745 mmHg 88%
    07:00 -6°C° 0.1 mm 6 mps 745 mmHg 88%
    08:00 -6°C° 0.1 mm 6 mps 745 mmHg 87%
    09:00 -6°C° 0.1 mm 6 mps 745 mmHg 87%
    10:00 -6°C° 0.1 mm 6 mps 745 mmHg 86%
    11:00 -5°C° 0.1 mm 6 mps 745 mmHg 84%
    12:00 -5°C° 0.1 mm 6 mps 745 mmHg 83%
    13:00 -5°C° 0.1 mm 5 mps 745 mmHg 84%
    14:00 -5°C° 0.1 mm 5 mps 745 mmHg 84%
    15:00 -6°C° 0.1 mm 5 mps 745 mmHg 85%
    16:00 -6°C° 0.1 mm 5 mps 745 mmHg 86%
    17:00 -6°C° 0.1 mm 5 mps 745 mmHg 87%
    18:00 -6°C° 0.1 mm 5 mps 745 mmHg 88%
    19:00 -5°C° 0.1 mm 4 mps 745 mmHg 89%
    20:00 -5°C° 0.1 mm 4 mps 745 mmHg 89%
    21:00 -7°C° 0.1 mm 4 mps 745 mmHg 90%
    22:00 -5°C° 0.1 mm 4 mps 745 mmHg 90%
    23:00 -5°C° 0.1 mm 4 mps 745 mmHg 90%
    Show more